Waarnemingen

Advertentie
Mijn weer
Socoa, Frankrijk (7600): temperatuur & dauwpunt: 15.01.2017 18:00:00 - 21.01.2017 18:00:00 (CET)Socoa, Frankrijk (7600): windsnelheid & windstoten: 15.01.2017 18:00:00 - 21.01.2017 18:00:00 (CET)Socoa, Frankrijk (7600): windrichting: 15.01.2017 18:00:00 - 21.01.2017 18:00:00 (CET)Socoa, Frankrijk (7600): luchtdruk: 15.01.2017 18:00:00 - 21.01.2017 18:00:00 (CET)Socoa, Frankrijk (7600): zicht: 15.01.2017 18:00:00 - 21.01.2017 18:00:00 (CET)Socoa, Frankrijk (7600): neerslag: 15.01.2017 18:00:00 - 21.01.2017 18:00:00 (CET)
Datum & Tijd tt [°C] td [°C] ff [km/u] ff [kn] fx [km/u] fx [kn] dd ppp [hPa] vv [km] rr [mm]
21.01.2017 18:00:00 7,5 1,6 4 2 6 3 N 1021,6 - 0,0
21.01.2017 17:00:00 9,7 1,8 3 1 7 4 NW 1021,4 - 0,0
21.01.2017 16:00:00 8,6 1,9 4 2 11 6 NNO 1021,3 - 0,0
21.01.2017 15:00:00 9,7 2,3 7 4 11 6 NO 1021,4 - 0,0
21.01.2017 14:00:00 9,6 3,3 7 4 11 6 NO 1021,6 - 0,0
21.01.2017 13:00:00 9,2 1,8 3 2 8 5 NNO 1022,3 20 0,0
21.01.2017 12:00:00 8,0 2,0 3 1 8 5 N 1022,8 - 0,0
21.01.2017 11:00:00 5,0 0,9 4 2 11 6 Z 1023,1 - 0,0
21.01.2017 10:00:00 1,3 -0,3 2 1 10 5 WNW 1022,9 - 0,0
21.01.2017 09:00:00 -1,0 -2,3 11 6 16 8 Z 1022,6 - 0,0
21.01.2017 08:00:00 -0,6 -1,9 14 8 18 10 Z 1022,5 - 0,0
21.01.2017 07:00:00 -1,5 -2,6 8 5 11 6 Z 1022,2 18 0,0
21.01.2017 06:00:00 -0,7 -2,3 7 4 14 8 Z 1022,5 - 0,0
21.01.2017 05:00:00 -0,5 -1,8 10 5 14 8 Z 1022,9 - 0,0
21.01.2017 04:00:00 -0,6 -1,9 10 5 18 10 Z 1023,3 - 0,0
21.01.2017 03:00:00 -0,7 -2,0 13 7 16 9 ZZW 1023,6 - 0,0
21.01.2017 02:00:00 -0,3 -1,6 11 6 15 8 Z 1023,4 - 0,0
21.01.2017 01:00:00 -0,3 -1,6 11 6 15 8 Z 1023,7 20 0,0
21.01.2017 00:00:00 -0,3 -1,3 9 5 13 7 Z 1024,2 - 0,0
20.01.2017 23:00:00 -0,4 -1,7 5 3 9 5 Z 1024,2 - 0,0
20.01.2017 22:00:00 0,2 -1,4 4 2 12 7 Z 1024,5 - 0,0
20.01.2017 21:00:00 0,6 -1,0 9 5 12 7 Z 1024,4 - 0,0
20.01.2017 20:00:00 1,2 -1,0 8 4 14 7 ZO 1024,5 - 0,0
20.01.2017 19:00:00 2,4 -0,9 6 4 11 6 OZO 1024,1 20 0,0
20.01.2017 18:00:00 4,6 -0,4 6 3 19 10 ZO 1023,9 - 0,0
20.01.2017 17:00:00 5,5 -0,8 4 2 11 6 NNO 1023,5 - 0,0
20.01.2017 16:00:00 5,7 -0,6 2 1 10 5 O 1023,6 - 0,0
20.01.2017 15:00:00 5,8 -1,1 6 3 12 7 NNO 1023,9 - 0,0
20.01.2017 14:00:00 6,6 -0,9 6 3 13 7 ONO 1024,2 - 0,0
20.01.2017 13:00:00 4,8 -1,0 4 2 12 7 O 1025,2 20 0,0
20.01.2017 12:00:00 2,8 -1,6 6 3 15 8 ZO 1026,3 - 0,2
20.01.2017 11:00:00 1,4 -1,3 0 0 12 6 N 1026,8 - 0,0
20.01.2017 10:00:00 -0,6 -1,4 4 2 13 7 OZO 1026,5 - 0,0
20.01.2017 09:00:00 -3,2 -4,3 6 4 16 9 ZZO 1026,2 - 0,0
20.01.2017 08:00:00 -3,2 -4,2 6 3 14 7 ZO 1026,0 - 0,0
20.01.2017 07:00:00 -3,4 -4,5 7 4 14 8 ZZO 1025,8 20 0,0
20.01.2017 06:00:00 -3,1 -4,2 11 6 16 9 Z 1025,8 - 0,0
20.01.2017 05:00:00 -3,1 -4,4 11 6 15 8 ZO 1026,3 - 0,0
20.01.2017 04:00:00 -2,8 -4,1 9 5 14 8 ZO 1026,7 20 0,0
20.01.2017 03:00:00 -1,8 -3,1 8 5 16 9 OZO 1026,7 - 0,0
20.01.2017 02:00:00 -1,4 -2,8 10 5 14 7 OZO 1026,6 - 0,0
20.01.2017 01:00:00 -1,0 -3,0 9 5 18 10 OZO 1026,8 - 0,0
20.01.2017 00:00:00 -0,4 -3,3 11 6 19 10 ZZO 1027,3 - 0,0
19.01.2017 23:00:00 -0,2 -3,1 11 6 20 11 OZO 1027,4 - 0,0
19.01.2017 22:00:00 0,4 -3,0 13 7 20 11 ZO 1027,5 18 0,0
19.01.2017 21:00:00 0,5 -3,4 7 4 15 8 ZO 1027,6 - 0,0
19.01.2017 20:00:00 1,6 -2,7 10 5 29 16 ZO 1027,3 - 0,0
19.01.2017 19:00:00 2,6 -2,3 19 10 27 15 O 1027,1 - 0,0
19.01.2017 18:00:00 3,5 -2,5 17 9 26 14 O 1027,0 - 0,0
19.01.2017 17:00:00 5,7 -1,9 10 5 18 10 O 1026,5 - 0,0
19.01.2017 16:00:00 5,3 -2,5 4 2 14 7 ZO 1026,4 25 0,0
19.01.2017 15:00:00 5,8 -2,1 5 3 10 6 W 1026,4 - 0,0
19.01.2017 14:00:00 5,5 -2,1 5 3 15 8 O 1026,6 - 0,0
19.01.2017 13:00:00 6,2 -2,2 4 2 16 8 ONO 1027,0 25 0,0
19.01.2017 12:00:00 5,1 -1,8 8 4 17 9 ZO 1027,7 - 0,0
19.01.2017 11:00:00 1,9 -3,0 8 4 22 12 ZO 1027,9 - 0,0
19.01.2017 10:00:00 0,5 -3,8 16 9 22 12 OZO 1027,9 15 0,0
19.01.2017 09:00:00 0,1 -4,0 14 7 23 12 ZO 1027,7 - 0,0
19.01.2017 08:00:00 0,1 -3,1 14 7 21 11 OZO 1027,4 - 0,0
19.01.2017 07:00:00 0,0 -3,2 11 6 15 8 ZO 1027,3 15 0,0
19.01.2017 06:00:00 0,0 -3,6 6 4 19 10 ZO 1027,4 - 0,0
19.01.2017 05:00:00 -0,1 -3,8 13 7 23 12 ZO 1027,9 - 0,0
19.01.2017 04:00:00 -0,1 -3,8 14 8 23 12 OZO 1028,1 - 0,0
19.01.2017 03:00:00 0,0 -4,3 14 8 21 12 ZO 1028,4 - 0,0
19.01.2017 02:00:00 0,1 -4,0 13 7 21 12 OZO 1028,2 - 0,0
19.01.2017 01:00:00 0,2 -4,4 13 7 19 10 ZO 1028,4 - 0,0
19.01.2017 00:00:00 0,3 -4,5 12 6 20 11 OZO 1028,4 - 0,0
18.01.2017 23:00:00 0,2 -4,6 13 7 22 12 OZO 1028,2 - 0,0
18.01.2017 22:00:00 0,2 -4,8 15 8 26 14 ZO 1028,6 - 0,0
18.01.2017 21:00:00 0,4 -4,6 13 7 30 16 OZO 1028,6 - 0,0
18.01.2017 20:00:00 0,4 -5,2 19 10 28 15 OZO 1028,4 - 0,0
18.01.2017 19:00:00 0,3 -5,3 15 8 26 14 ZO 1028,1 - 0,0
18.01.2017 18:00:00 0,5 -4,7 12 7 28 15 OZO 1027,8 - 0,0
18.01.2017 17:00:00 0,6 -4,2 21 11 30 16 O 1027,7 - 0,0
18.01.2017 16:00:00 0,8 -4,1 7 4 14 8 ZO 1027,3 - 0,0
18.01.2017 15:00:00 0,7 -4,5 4 2 12 7 Z 1027,2 - 0,0
18.01.2017 14:00:00 0,1 -3,8 6 3 13 7 ZO 1027,4 - 0,0
18.01.2017 13:00:00 -0,6 -4,1 7 4 15 8 ZZO 1027,9 - 0,0
18.01.2017 12:00:00 -1,2 -4,5 4 2 16 9 ZZO 1028,7 - 0,0
18.01.2017 11:00:00 -1,5 -5,0 11 6 21 11 OZO 1028,9 - 0,0
18.01.2017 10:00:00 -1,8 -5,6 11 6 21 11 O 1028,8 - 0,0
18.01.2017 09:00:00 -1,8 -5,6 10 5 21 11 O 1028,6 - 0,0
18.01.2017 08:00:00 -1,8 -5,6 11 6 23 13 O 1028,5 - 0,0
18.01.2017 07:00:00 -1,6 -5,8 16 9 31 17 O 1028,2 - 0,0
18.01.2017 06:00:00 -1,1 -5,3 16 9 32 17 O 1028,4 - 0,0
18.01.2017 05:00:00 -1,0 -5,2 21 12 32 17 O 1028,4 - 0,0
18.01.2017 04:00:00 -1,1 -5,3 16 8 29 16 O 1028,6 - 0,0
18.01.2017 03:00:00 -0,7 -5,5 22 12 35 19 O 1028,7 - 0,0
18.01.2017 02:00:00 -0,4 -5,4 21 11 33 18 O 1028,7 - 0,0
18.01.2017 01:00:00 -0,2 -5,4 20 11 32 17 O 1029,2 20 0,0
18.01.2017 00:00:00 0,3 -5,1 12 7 20 11 OZO 1029,4 - 0,0
17.01.2017 23:00:00 1,0 -5,5 18 10 37 20 O 1029,5 - 0,0
17.01.2017 22:00:00 1,6 -5,6 26 14 44 24 O 1029,6 - 0,0
17.01.2017 21:00:00 2,5 -5,4 31 17 56 30 ONO 1029,6 - 0,0
17.01.2017 20:00:00 4,0 -3,5 36 19 58 31 NO 1029,0 - 0,0
17.01.2017 19:00:00 4,8 -5,9 37 20 54 29 NO 1028,4 20 0,0
17.01.2017 18:00:00 5,7 -3,4 38 20 51 28 NNO 1028,3 - 0,0
17.01.2017 17:00:00 5,6 -2,7 26 14 41 22 N 1028,4 - 0,0
17.01.2017 16:00:00 5,1 -2,5 8 5 24 13 N 1028,7 - 0,0
17.01.2017 15:00:00 5,0 -3,3 14 8 28 15 N 1028,8 - 0,0
17.01.2017 14:00:00 4,8 -4,2 15 8 24 13 N 1029,2 - 0,0
17.01.2017 13:00:00 5,2 -2,6 6 3 18 10 NNO 1029,9 20 0,0
17.01.2017 12:00:00 4,8 -1,7 5 3 18 10 ONO 1030,5 - 0,0
17.01.2017 11:00:00 3,6 -1,8 8 4 21 11 O 1030,4 - 0,0
17.01.2017 10:00:00 2,3 -1,1 8 4 20 11 OZO 1029,9 - 0,0
17.01.2017 09:00:00 0,4 -1,4 11 6 21 12 O 1029,2 - 0,0
17.01.2017 08:00:00 0,6 -1,5 6 3 29 15 O 1028,7 - 0,0
17.01.2017 07:00:00 1,5 -1,2 23 12 39 21 O 1028,0 15 0,0
17.01.2017 06:00:00 2,4 0,1 24 13 41 22 O 1027,4 - 0,0
17.01.2017 05:00:00 3,3 1,2 26 14 39 21 ONO 1027,3 - 0,0
17.01.2017 04:00:00 4,6 2,0 26 14 40 22 O 1027,1 20 0,0
17.01.2017 03:00:00 5,1 3,4 12 7 31 17 O 1026,7 - 0,2
17.01.2017 02:00:00 5,5 3,7 20 11 35 19 O 1026,4 - 0,0
17.01.2017 01:00:00 5,9 4,2 19 11 39 21 O 1026,4 - 0,2
17.01.2017 00:00:00 6,9 5,4 18 10 34 18 O 1025,9 - 0,3
16.01.2017 23:00:00 8,2 6,8 21 11 34 19 O 1025,8 - 0,6
16.01.2017 22:00:00 8,6 7,2 15 8 29 15 O 1025,6 - 1,2
16.01.2017 21:00:00 9,5 7,8 16 8 35 19 O 1025,5 - 0,4
16.01.2017 20:00:00 9,9 8,0 25 14 40 22 NO 1025,5 - 1,0
16.01.2017 19:00:00 10,3 8,1 29 16 37 20 NNO 1025,3 15 0,2
16.01.2017 18:00:00 10,6 9,0 27 15 37 20 N 1025,3 - 1,2
16.01.2017 17:00:00 10,4 8,2 27 15 43 23 N 1025,5 - 0,4
16.01.2017 16:00:00 10,7 9,5 31 17 40 21 N 1025,5 8 0,8
16.01.2017 15:00:00 11,2 9,3 22 12 32 17 N 1025,5 - 0,2
16.01.2017 14:00:00 10,9 9,8 19 11 32 18 N 1025,6 - 0,6
16.01.2017 13:00:00 10,7 9,6 22 12 37 20 N 1026,4 8 0,2
16.01.2017 12:00:00 10,7 9,9 21 12 53 29 N 1026,9 - 2,9
16.01.2017 11:00:00 11,0 9,9 45 25 60 32 NNW 1026,8 - 2,0
16.01.2017 10:00:00 11,3 9,9 46 25 62 34 NW 1026,3 15 0,0
16.01.2017 09:00:00 11,3 9,6 46 25 63 34 NNW 1026,3 - 0,2
16.01.2017 08:00:00 11,1 9,7 46 25 72 39 N 1025,9 - 1,4
16.01.2017 07:00:00 11,8 9,2 51 28 74 40 NNW 1025,3 - 0,0
16.01.2017 06:00:00 11,8 9,4 57 31 80 43 NNW 1024,8 - 0,2
16.01.2017 05:00:00 11,2 9,8 59 32 82 44 NNW 1025,2 - 1,0
16.01.2017 04:00:00 11,5 9,9 58 32 84 45 NNW 1025,4 15 2,4
16.01.2017 03:00:00 11,4 9,1 56 30 82 44 NW 1025,7 - 0,4
16.01.2017 02:00:00 11,5 8,7 59 32 76 41 NW 1026,0 - 0,0
16.01.2017 01:00:00 11,2 9,5 50 27 82 45 NW 1026,8 20 0,4
16.01.2017 00:00:00 11,0 8,9 60 32 86 47 NNW 1027,0 - 1,0
15.01.2017 23:00:00 11,0 8,9 56 30 85 46 NW 1027,3 - 0,8
15.01.2017 22:00:00 11,4 8,3 51 28 69 37 NNW 1027,8 20 0,8
15.01.2017 21:00:00 10,8 7,8 43 23 69 37 NNW 1028,3 - 1,0
15.01.2017 20:00:00 10,0 8,6 50 27 67 36 N 1028,6 - 2,6
15.01.2017 19:00:00 9,5 7,9 39 21 58 31 N 1028,9 12 1,6
15.01.2017 18:00:00 9,0 7,6 11 6 30 16 NW 1029,0 - 0,6

tt = temperatuur
td = dauwpunt
ff = windsnelheid
fx = windstoten
dd = windrichting
ppp = luchtdruk
vv = zicht
rr = neerslag

Weerstations in de omgeving